Total_Precipitation_Accumulation
1.05 1.24 1.41 1.55 1.72 1.86 1.95 2.00 2.02 2.07 2.17 2.22 2.17 2.22 2.31 2.34 2.28 2.28 2.27 2.18 2.05 1.92 1.83 1.77 1.70 1.63 1.65 1.61 1.66 1.75 1.80 1.88 1.86 1.45 1.23 1.21 1.31 1.33 1.36 1.27 1.24 1.21 1.16
0.95 1.05 1.25 1.33 1.47 1.63 1.75 1.80 1.81 1.84 1.90 1.96 2.00 2.04 2.08 2.12 2.15 2.15 2.13 2.10 2.06 1.94 1.85 1.81 1.74 1.70 1.77 1.78 1.78 1.77 1.76 1.73 1.73 1.57 1.32 1.23 1.22 1.17 1.15 1.17 1.18 1.17 1.08
0.91 0.95 1.09 1.22 1.30 1.37 1.48 1.59 1.66 1.70 1.76 1.82 1.83 1.92 1.97 1.94 1.99 2.01 2.01 2.01 2.01 1.96 1.90 1.87 1.82 1.80 1.84 1.82 1.79 1.77 1.70 1.65 1.64 1.61 1.44 1.29 1.28 1.22 1.20 1.18 1.16 1.15 1.07
0.84 0.91 0.94 1.10 1.21 1.26 1.29 1.36 1.44 1.47 1.55 1.59 1.64 1.67 1.75 1.80 1.85 1.93 1.99 1.98 1.98 1.96 1.93 1.88 1.82 1.78 1.75 1.70 1.66 1.62 1.61 1.63 1.65 1.67 1.57 1.43 1.36 1.34 1.35 1.38 1.34 1.22 1.16
0.76 0.86 0.91 0.98 1.07 1.18 1.25 1.30 1.38 1.41 1.42 1.47 1.52 1.55 1.56 1.62 1.72 1.82 1.92 2.00 2.01 2.00 1.98 1.89 1.77 1.71 1.64 1.60 1.57 1.53 1.54 1.65 1.72 1.75 1.66 1.53 1.41 1.40 1.43 1.35 1.36 1.32 1.26
0.75 0.79 0.87 0.94 0.98 1.04 1.13 1.23 1.30 1.40 1.44 1.45 1.53 1.58 1.60 1.65 1.88 1.98 1.96 1.97 1.97 1.93 1.85 1.72 1.63 1.61 1.55 1.58 1.59 1.57 1.62 1.76 1.86 1.82 1.66 1.47 1.26 1.19 1.27 1.41 1.52 1.57 1.49
0.80 0.78 0.82 0.90 1.00 1.05 1.07 1.16 1.30 1.40 1.56 1.63 1.64 1.72 1.72 1.74 1.83 1.74 1.79 1.79 1.82 1.82 1.73 1.60 1.51 1.41 1.39 1.28 1.39 1.50 1.52 1.62 1.66 1.60 1.52 1.30 1.19 1.16 1.38 1.63 1.63 1.54 1.30
0.84 0.86 0.88 0.90 1.02 1.13 1.15 1.19 1.29 1.39 1.54 1.68 1.71 1.73 1.72 1.71 1.72 1.60 1.60 1.49 1.48 1.51 1.53 1.51 1.45 1.39 1.33 1.31 1.35 1.41 1.30 1.24 1.24 1.16 1.16 1.17 1.18 1.21 1.41 1.68 1.70 1.67 1.44
0.86 0.90 0.93 0.96 1.08 1.19 1.20 1.22 1.27 1.33 1.41 1.48 1.54 1.56 1.51 1.48 1.50 1.42 1.43 1.34 1.33 1.29 1.26 1.32 1.38 1.32 1.42 1.53 1.48 1.42 1.24 1.09 1.11 1.19 1.24 1.25 1.32 1.33 1.42 1.77 1.95 2.00 1.80
0.96 1.00 1.03 1.12 1.23 1.29 1.27 1.25 1.23 1.23 1.23 1.21 1.22 1.20 1.18 1.17 1.25 1.23 1.24 1.17 1.20 1.17 1.17 1.21 1.36 1.33 1.45 1.56 1.43 1.39 1.28 1.11 1.06 1.05 1.04 1.05 1.03 1.09 1.29 1.48 1.92 2.26 1.96
1.06 1.07 1.08 1.15 1.23 1.27 1.24 1.19 1.16 1.12 1.10 1.07 1.04 1.02 0.99 1.00 1.06 1.07 1.11 1.07 1.08 1.12 1.14 1.12 1.15 1.40 1.49 1.50 1.39 1.24 1.26 1.23 1.09 1.01 1.00 0.97 0.96 1.00 1.06 1.16 1.47 2.09 2.28
0.99 1.01 1.01 1.03 1.09 1.16 1.19 1.14 1.10 1.10 1.09 1.06 1.05 1.07 1.04 1.03 1.03 1.03 1.10 1.14 1.17 1.11 1.06 1.00 1.08 1.33 1.33 1.30 1.25 1.27 1.39 1.31 1.10 1.09 1.07 1.04 1.00 0.97 0.98 1.05 1.17 1.38 1.66
0.89 0.94 0.92 0.89 0.92 0.98 1.05 1.08 1.09 1.10 1.09 1.08 1.07 1.09 1.08 1.03 1.07 1.14 1.12 1.20 1.22 1.09 1.05 1.18 1.22 1.20 1.15 1.14 1.22 1.27 1.23 1.20 1.28 1.34 1.21 1.04 0.95 0.93 0.97 1.05 1.11 1.19 1.29
0.74 0.81 0.85 0.85 0.86 0.86 0.90 0.99 1.05 1.10 1.10 1.06 1.07 1.10 1.07 0.99 1.00 1.06 1.08 1.12 1.17 1.14 1.16 1.21 1.18 1.09 1.04 1.07 1.16 1.17 1.13 1.18 1.35 1.42 1.29 1.09 0.99 1.02 1.10 1.18 1.33 1.36 1.49
0.65 0.70 0.74 0.80 0.85 0.89 0.90 0.98 1.08 1.13 1.22 1.24 1.14 1.09 1.11 1.09 1.09 1.21 1.24 1.19 1.24 1.28 1.26 1.11 1.02 1.00 0.99 0.97 0.99 1.01 1.06 1.16 1.28 1.25 1.28 1.25 1.18 1.18 1.21 1.30 1.52 1.65 1.71
0.70 0.70 0.74 0.81 0.85 0.87 0.89 0.95 1.05 1.10 1.16 1.18 1.20 1.17 1.12 1.16 1.20 1.25 1.29 1.35 1.40 1.39 1.29 1.14 1.04 0.97 0.93 0.90 0.91 0.96 1.00 1.09 1.20 1.30 1.34 1.34 1.34 1.32 1.33 1.37 1.57 1.76 1.75
0.75 0.77 0.78 0.82 0.88 0.87 0.86 0.89 0.96 1.00 1.03 1.05 1.10 1.15 1.15 1.16 1.15 1.19 1.28 1.33 1.30 1.28 1.23 1.14 1.04 0.98 0.95 0.90 0.91 0.94 0.97 0.99 1.14 1.33 1.42 1.44 1.46 1.43 1.45 1.51 1.61 1.71 1.66
0.73 0.78 0.82 0.85 0.90 0.90 0.87 0.88 0.90 0.92 0.95 0.96 1.01 1.08 1.12 1.14 1.18 1.22 1.27 1.27 1.24 1.16 1.08 1.08 1.03 0.99 0.99 1.01 1.02 1.05 1.05 1.05 1.15 1.29 1.36 1.42 1.51 1.59 1.59 1.58 1.62 1.66 1.61
0.70 0.74 0.78 0.84 0.89 0.93 0.92 0.90 0.90 0.88 0.89 0.92 0.94 1.04 1.13 1.14 1.19 1.24 1.21 1.12 1.08 1.04 0.99 0.97 0.96 0.98 1.04 1.08 1.11 1.14 1.19 1.24 1.28 1.42 1.45 1.46 1.53 1.66 1.63 1.53 1.52 1.50 1.44
0.66 0.76 0.81 0.85 0.87 0.89 0.92 0.94 0.93 0.90 0.88 0.88 0.89 0.97 1.09 1.16 1.15 1.11 1.07 1.02 1.03 1.03 0.98 0.97 0.96 0.97 1.05 1.12 1.17 1.21 1.28 1.30 1.34 1.45 1.51 1.53 1.58 1.67 1.66 1.51 1.41 1.40 1.32
0.67 0.71 0.79 0.82 0.86 0.88 0.91 0.95 0.94 0.92 0.91 0.90 0.89 0.97 1.17 1.17 1.06 0.96 0.96 1.00 1.04 1.04 1.03 1.02 1.01 1.04 1.10 1.17 1.23 1.26 1.31 1.33 1.37 1.49 1.55 1.54 1.53 1.53 1.42 1.40 1.37 1.36 1.37
0.69 0.70 0.71 0.76 0.84 0.90 0.96 0.97 0.98 0.95 0.90 0.89 0.89 0.94 1.07 1.02 0.99 0.98 0.98 0.97 0.97 0.98 1.01 1.08 1.08 1.07 1.20 1.36 1.49 1.54 1.44 1.35 1.36 1.48 1.51 1.42 1.37 1.36 1.36 1.38 1.37 1.38 1.40
0.70 0.73 0.74 0.78 0.86 0.95 0.98 0.97 0.99 0.97 0.94 0.91 0.91 0.92 0.92 0.94 0.97 1.00 1.02 1.01 0.98 0.96 0.97 1.03 1.11 1.07 1.10 1.29 1.51 1.81 1.88 1.65 1.52 1.61 1.72 1.58 1.43 1.40 1.44 1.45 1.38 1.37 1.34
0.71 0.75 0.78 0.81 0.86 0.91 0.94 0.95 0.96 0.97 0.96 0.94 0.92 0.92 0.93 0.95 0.96 0.97 0.98 1.00 1.00 0.97 0.95 1.01 1.07 1.07 1.09 1.26 1.42 1.56 1.70 1.81 1.98 2.03 2.00 1.99 1.73 1.50 1.47 1.45 1.35 1.31 1.32
0.70 0.76 0.80 0.84 0.88 0.90 0.92 0.93 0.93 0.94 0.95 0.96 0.95 0.94 0.94 0.94 0.92 0.92 0.92 0.94 0.96 0.96 0.91 0.93 1.01 1.06 1.10 1.21 1.34 1.43 1.55 1.71 1.90 2.00 1.92 1.84 1.65 1.47 1.44 1.43 1.35 1.32 1.32
0.69 0.74 0.78 0.81 0.86 0.89 0.93 0.95 0.94 0.96 0.98 0.98 0.97 0.96 0.96 0.94 0.89 0.87 0.87 0.89 0.91 0.90 0.87 0.87 0.91 0.99 1.08 1.18 1.22 1.33 1.45 1.43 1.39 1.42 1.62 1.76 1.64 1.43 1.40 1.46 1.36 1.32 1.31